GW6547 Weather Reports


Display with metric or nautical units.
time (UTC)temp
F
wind
direction
speed
MPH
gust
MPH
rain 1hr
in
rain 24hr
in
rain mn
in
humidity
%
barometer
mb
20260906075350 71 185 0.0 0.0 0.00 0.00 0.00 99 1011.0
20260906074846 71 181 0.0 0.0 0.00 0.00 0.00 99 1011.1
20260906074345 71 180 0.0 0.0 0.00 0.00 0.00 99 1010.7
20260906073844 71 185 0.0 0.0 0.00 0.00 0.00 99 1010.7
20260906073339 71 188 0.0 0.0 0.00 0.00 0.00 99 1010.8
20260906072836 71 185 0.0 0.0 0.00 0.00 0.00 99 1010.9
20260906072331 71 185 0.0 0.0 0.00 0.00 0.00 99 1010.9
20260906071827 71 186 0.0 0.0 0.00 0.00 0.00 99 1010.7
20260906071328 71 184 0.0 0.0 0.00 0.00 0.00 99 1011.0
20260906070824 71 186 0.0 0.0 0.00 0.00 0.00 99 1011.2
20260906070319 72 188 0.0 0.0 0.00 0.00 0.00 99 1011.0
20260906065814 72 185 0.0 0.0 0.00 0.00 0.00 99 1010.9
20260906065309 72 180 0.0 0.0 0.00 0.00 0.00 99 1010.9
20260906064805 72 183 0.0 0.0 0.00 0.00 0.00 99 1010.8
20260906064301 72 191 0.0 0.0 0.00 0.00 0.00 99 1011.0
20260906063755 72 192 0.0 0.0 0.00 0.00 0.00 98 1011.0
20260906063251 72 189 0.0 0.0 0.00 0.00 0.00 98 1011.2
20260906062746 72 180 0.0 0.0 0.00 0.00 0.00 98 1011.3
20260906062245 72 185 0.0 0.0 0.00 0.00 0.00 98 1011.2
20260906061741 72 185 0.0 0.0 0.00 0.00 0.00 97 1011.2
20260906061237 72 188 0.0 0.0 0.00 0.00 0.00 97 1011.3
20260906060732 72 188 0.0 0.0 0.00 0.00 0.00 97 1011.3
20260906060230 72 187 0.0 0.0 0.00 0.00 0.00 97 1011.5
20260906055725 73 189 0.0 0.0 0.00 0.00 0.00 97 1011.4
20260906055220 73 189 0.0 0.0 0.00 0.00 0.00 97 1011.6
20260906054715 73 188 0.0 0.0 0.00 0.00 0.00 96 1011.6
20260906054216 73 186 0.0 0.0 0.00 0.00 0.00 96 1011.7
20260906053713 73 182 0.0 0.0 0.00 0.00 0.00 96 1011.5
20260906053208 73 183 0.0 0.0 0.00 0.00 0.00 96 1011.6
20260906052703 73 187 0.0 0.0 0.00 0.00 0.00 96 1011.7
20260906052159 73 193 0.0 0.0 0.00 0.00 0.00 96 1012.0
20260906051656 73 188 0.0 0.0 0.00 0.00 0.00 96 1011.9
20260906051155 73 187 0.0 0.0 0.00 0.00 0.00 96 1012.0
20260906050651 72 185 0.0 0.0 0.00 0.00 0.00 96 1012.0
20260906050145 72 187 0.0 0.0 0.00 0.00 0.00 96 1012.1
20260906045644 72 191 0.0 0.0 0.00 0.00 0.00 96 1011.9
20260906045139 72 192 0.0 0.0 0.00 0.00 0.00 96 1011.9
20260906044635 72 187 0.0 0.0 0.00 0.00 0.00 96 1012.1
20260906044130 73 191 0.0 0.0 0.00 0.00 0.00 95 1011.9
20260906043627 73 182 0.0 0.0 0.00 0.00 0.00 95 1012.0
20260906043122 73 184 0.0 0.0 0.00 0.00 0.00 95 1012.3
20260906042621 73 187 0.0 0.0 0.00 0.00 0.00 95 1012.3
20260906042115 73 185 0.0 0.0 0.00 0.00 0.00 94 1012.4
20260906041612 73 189 0.0 0.0 0.00 0.00 0.00 94 1012.6
20260906041112 73 184 0.0 0.0 0.00 0.00 0.00 94 1012.3
20260906040607 73 190 0.0 0.0 0.00 0.00 0.00 94 1012.1
20260906035558 73 185 0.0 0.0 0.00 0.00 0.00 95 1012.5
20260906035054 73 188 0.0 0.0 0.00 0.00 0.00 95 1012.5
20260906034553 73 188 0.0 0.0 0.00 0.00 0.00 94 1012.3
20260906034048 73 190 0.0 0.0 0.00 0.00 0.00 95 1012.3
20260906033543 72 188 0.0 0.0 0.00 0.00 0.00 95 1012.4
20260906033039 72 190 0.0 0.0 0.00 0.00 0.00 96 1012.4
20260906032536 72 192 0.0 0.0 0.00 0.00 0.00 96 1012.6
20260906032030 72 187 0.0 0.0 0.00 0.00 0.00 96 1012.5
20260906031526 72 187 0.0 0.0 0.00 0.00 0.00 95 1012.6
20260906031021 72 189 0.0 0.0 0.00 0.00 0.00 95 1012.5
20260906030520 72 188 0.0 0.0 0.00 0.00 0.00 95 1012.5
20260906030020 73 191 0.0 0.0 0.00 0.00 0.00 95 1012.2
20260906025520 73 184 0.0 0.0 0.00 0.00 0.00 94 1012.4
20260906025018 73 195 0.0 0.0 0.00 0.00 0.00 94 1012.2
20260906024514 73 187 0.0 0.0 0.00 0.00 0.00 94 1012.5
20260906024013 73 184 0.0 0.0 0.00 0.00 0.00 93 1012.5
20260906023510 73 184 0.0 0.0 0.00 0.00 0.00 93 1012.1
20260906023004 73 181 0.0 0.0 0.00 0.00 0.00 93 1012.2
20260906022459 74 183 0.0 0.0 0.00 0.00 0.00 92 1012.3
20260906021955 74 184 0.0 0.0 0.00 0.00 0.00 92 1012.4
20260906021449 74 184 0.0 0.0 0.00 0.00 0.00 91 1012.2
20260906020944 74 189 0.0 0.0 0.00 0.00 0.00 91 1012.1
20260906020439 74 186 0.0 0.0 0.00 0.00 0.00 91 1012.2
20260906015933 74 185 0.0 0.0 0.00 0.00 0.00 91 1012.1
20260906015432 74 182 1.0 1.0 0.00 0.00 0.00 91 1012.4
20260906014932 74 180 0.0 0.0 0.00 0.00 0.00 90 1012.0
20260906014432 74 186 0.0 0.0 0.00 0.00 0.00 90 1011.9
20260906013928 75 187 0.0 0.0 0.00 0.00 0.00 89 1012.2
20260906013423 75 192 0.0 0.0 0.00 0.00 0.00 89 1012.1
20260906012919 75 189 0.0 0.0 0.00 0.00 0.00 89 1011.9
20260906012414 74 190 0.0 0.0 0.00 0.00 0.00 90 1012.0
20260906011913 74 186 0.0 0.0 0.00 0.00 0.00 90 1012.0
20260906011408 75 191 0.0 0.0 0.00 0.00 0.00 90 1011.6
20260906010904 75 179 0.0 0.0 0.00 0.00 0.00 89 1011.9
20260906010359 75 187 0.0 0.0 0.00 0.00 0.00 88 1011.6
20260906005855 75 185 0.0 0.0 0.00 0.00 0.00 89 1011.8
20260906005354 75 188 0.0 0.0 0.00 0.00 0.00 88 1011.9
20260906004853 75 188 0.0 0.0 0.00 0.00 0.00 88 1011.6
20260906004353 75 192 0.0 0.0 0.00 0.00 0.00 88 1011.5
20260906003848 75 185 0.0 0.0 0.00 0.00 0.00 87 1011.8
20260906003343 75 185 0.0 0.0 0.00 0.00 0.00 87 1011.6
20260906002839 76 184 0.0 0.0 0.00 0.00 0.00 87 1011.5
20260906002338 76 184 0.0 0.0 0.00 0.00 0.00 86 1011.5
20260906001834 76 188 0.0 0.0 0.00 0.00 0.00 86 1011.5
20260906001329 77 191 0.0 0.0 0.00 0.00 0.00 85 1011.2
20260906000824 77 187 0.0 0.0 0.00 0.00 0.00 84 1011.4
20260906000319 77 197 0.0 0.0 0.00 0.00 0.00 83 1011.4
20260905235814 78 184 0.0 0.0 0.00 0.00 0.00 82 1011.4
20260905235314 78 197 0.0 0.0 0.00 0.00 0.00 81 1011.0
20260905234809 78 192 0.0 0.0 0.00 0.00 0.00 80 1011.0
20260905221320 83 106 2.0 2.0 0.00 0.00 0.00 70 1010.6
20260905220815 83 106 2.0 2.0 0.00 0.00 0.00 70 1010.6
20260905220312 83 133 1.0 2.0 0.00 0.00 0.00 71 1010.7
20260905215810 83 101 2.0 2.0 0.00 0.00 0.00 73 1010.9
20260905215306 83 165 0.0 0.0 0.00 0.00 0.00 72 1010.7
20260905214738 82 171 1.0 1.0 0.00 0.00 0.00 74 1010.9
20260905214234 82 171 1.0 1.0 0.00 0.00 0.00 74 1010.9
20260905213729 82 166 0.0 0.0 0.00 0.00 0.00 75 1010.9
20260905213225 81 161 1.0 1.0 0.00 0.00 0.00 74 1011.0
20260905212720 81 162 0.0 0.0 0.00 0.00 0.00 76 1011.3
20260905212219 80 174 0.0 0.0 0.00 0.00 0.00 75 1011.7
20260905211720 80 186 0.0 0.0 0.00 0.00 0.00 79 1011.7
20260905211215 80 184 0.0 0.0 0.00 0.00 0.00 79 1011.8
20260905210712 80 182 0.0 0.0 0.00 0.00 0.00 80 1011.8
20260905210211 80 184 0.0 0.0 0.00 0.00 0.00 80 1011.7
20260905205710 80 181 0.0 0.0 0.00 0.00 0.00 80 1011.7
20260905205210 80 185 0.0 0.0 0.00 0.00 0.00 80 1011.9
20260905204710 80 179 0.0 0.0 0.00 0.00 0.00 77 1011.6
20260905204206 80 183 0.0 0.0 0.00 0.00 0.00 76 1011.5
20260905203705 80 157 0.0 1.0 0.00 0.00 0.00 77 1011.9
20260905203201 80 176 0.0 0.0 0.00 0.00 0.00 78 1011.4
20260905202657 80 176 0.0 0.0 0.00 0.00 0.00 80 1011.1
20260905202152 80 163 0.0 1.0 0.00 0.00 0.00 80 1011.0
20260905201648 81 177 0.0 0.0 0.00 0.00 0.00 80 1011.4
20260905201147 80 140 0.0 0.0 0.00 0.00 0.00 78 1011.3
20260905200642 80 83 2.0 2.0 0.00 0.00 0.00 78 1011.2
20260905200138 80 181 0.0 0.0 0.00 0.00 0.00 79 1011.5
20260905195636 80 180 0.0 1.0 0.00 0.00 0.00 78 1011.5
20260905195132 80 192 1.0 2.0 0.00 0.00 0.00 78 1011.5
20260905194632 80 19 1.0 2.0 0.00 0.00 0.00 78 1011.3
20260905194131 80 53 2.0 3.0 0.00 0.00 0.00 78 1011.3
20260905193626 81 178 1.0 1.0 0.00 0.00 0.00 78 1011.4
20260905193121 81 187 1.0 2.0 0.00 0.00 0.00 77 1011.5
20260905192617 81 62 2.0 2.0 0.00 0.00 0.00 76 1011.2
20260905192113 81 171 1.0 1.0 0.00 0.00 0.00 76 1011.4
20260905191611 82 222 1.0 2.0 0.00 0.00 0.00 74 1011.5
20260905191110 85 123 1.0 1.0 0.00 0.00 0.00 70 1011.3
20260905190609 87 131 1.0 2.0 0.00 0.00 0.00 64 1011.2
20260905185602 95 152 3.0 5.0 0.00 0.00 0.00 54 1011.1
20260905185101 96 100 0.0 1.0 0.00 0.00 0.00 53 1011.0
20260905184556 96 142 1.0 1.0 0.00 0.00 0.00 51 1011.0
20260905184055 96 184 1.0 2.0 0.00 0.00 0.00 50 1011.1
20260905183555 96 253 2.0 2.0 0.00 0.00 0.00 49 1011.3
20260905183051 96 67 3.0 5.0 0.00 0.00 0.00 51 1011.2
20260905182550 97 184 0.0 0.0 0.00 0.00 0.00 50 1011.0
20260905182050 97 68 3.0 5.0 0.00 0.00 0.00 50 1011.1
20260905181545 97 222 2.0 5.0 0.00 0.00 0.00 51 1011.2
20260905181045 97 202 0.0 1.0 0.00 0.00 0.00 54 1011.3
20260905180544 97 151 2.0 2.0 0.00 0.00 0.00 53 1011.4
20260905180040 96 193 1.0 1.0 0.00 0.00 0.00 52 1011.4
20260905175539 98 55 3.0 5.0 0.00 0.00 0.00 50 1011.6
20260905175035 97 193 0.0 0.0 0.00 0.00 0.00 51 1011.5
20260905174530 96 196 0.0 1.0 0.00 0.00 0.00 50 1011.9
20260905174026 96 202 1.0 1.0 0.00 0.00 0.00 53 1012.1
20260905173522 96 174 1.0 1.0 0.00 0.00 0.00 51 1011.9
20260905173017 96 180 2.0 2.0 0.00 0.00 0.00 52 1012.3
20260905172515 95 214 1.0 2.0 0.00 0.00 0.00 53 1012.3
20260905172011 96 199 0.0 0.0 0.00 0.00 0.00 55 1012.5
20260905171508 96 191 0.0 0.0 0.00 0.00 0.00 56 1012.4
20260905171004 94 174 0.0 0.0 0.00 0.00 0.00 58 1012.4
20260905170500 94 161 0.0 1.0 0.00 0.00 0.00 56 1012.6
20260905170000 96 193 0.0 1.0 0.00 0.00 0.00 55 1012.4
20260905165455 95 185 0.0 1.0 0.00 0.00 0.00 54 1012.8
20260905164950 95 189 0.0 0.0 0.00 0.00 0.00 55 1013.0
20260905164449 95 182 0.0 1.0 0.00 0.00 0.00 59 1013.0
20260905163944 95 174 3.0 3.0 0.00 0.00 0.00 55 1013.0
20260905163441 95 167 1.0 1.0 0.00 0.00 0.00 57 1013.1
20260905162937 94 40 1.0 2.0 0.00 0.00 0.00 61 1013.2
20260905162432 93 177 1.0 2.0 0.00 0.00 0.00 62 1013.2
20260905161927 93 178 1.0 1.0 0.00 0.00 0.00 62 1013.3
20260905161426 93 184 1.0 1.0 0.00 0.00 0.00 63 1013.2
20260905160924 94 178 0.0 0.0 0.00 0.00 0.00 62 1013.3
20260905160419 94 216 1.0 1.0 0.00 0.00 0.00 63 1013.5
20260905155918 94 193 0.0 0.0 0.00 0.00 0.00 61 1013.5
20260905155418 94 196 0.0 0.0 0.00 0.00 0.00 62 1013.6
20260905154917 93 91 2.0 3.0 0.00 0.00 0.00 64 1013.5
20260905154413 94 193 0.0 0.0 0.00 0.00 0.00 64 1013.6
20260905153908 93 195 0.0 0.0 0.00 0.00 0.00 64 1013.5
20260905153404 92 195 0.0 0.0 0.00 0.00 0.00 69 1013.5
20260905152904 91 185 0.0 1.0 0.00 0.00 0.00 67 1013.4
20260905152403 92 181 0.0 0.0 0.00 0.00 0.00 70 1013.4
20260905151859 91 187 0.0 1.0 0.00 0.00 0.00 71 1013.7
20260905151355 92 178 0.0 1.0 0.00 0.00 0.00 70 1013.8
20260905150855 91 197 0.0 0.0 0.00 0.00 0.00 72 1013.5
20260905150354 90 192 0.0 0.0 0.00 0.00 0.00 72 1013.8
20260905145851 89 182 0.0 0.0 0.00 0.00 0.00 76 1013.7
20260905145346 88 83 1.0 2.0 0.00 0.00 0.00 73 1013.6
20260905144845 89 190 0.0 0.0 0.00 0.00 0.00 73 1013.8
20260905144341 88 183 0.0 1.0 0.00 0.00 0.00 78 1013.8
20260905143839 88 196 1.0 1.0 0.00 0.00 0.00 74 1013.8
20260905143334 89 172 1.0 1.0 0.00 0.00 0.00 75 1013.8
20260905142833 89 193 0.0 0.0 0.00 0.00 0.00 75 1013.7
20260905142327 88 199 1.0 1.0 0.00 0.00 0.00 74 1013.7
20260905141823 87 169 1.0 1.0 0.00 0.00 0.00 76 1013.8
20260905141324 87 159 1.0 1.0 0.00 0.00 0.00 77 1013.7
20260905140819 87 137 2.0 2.0 0.00 0.00 0.00 76 1013.5
20260905140319 86 190 0.0 0.0 0.00 0.00 0.00 79 1013.8
20260905135818 86 189 2.0 3.0 0.00 0.00 0.00 78 1013.7
20260905135314 86 199 0.0 1.0 0.00 0.00 0.00 79 1013.9
20260905134810 86 193 0.0 0.0 0.00 0.00 0.00 79 1013.7
20260905134308 85 147 1.0 1.0 0.00 0.00 0.00 79 1013.7
20260905133802 85 194 1.0 1.0 0.00 0.00 0.00 80 1013.9
20260905133258 84 189 1.0 1.0 0.00 0.00 0.00 81 1014.0
20260905132757 84 188 1.0 2.0 0.00 0.00 0.00 81 1014.0
20260905132252 84 193 0.0 0.0 0.00 0.00 0.00 82 1013.9
20260905131747 84 196 0.0 1.0 0.00 0.00 0.00 82 1014.1
20260905131243 83 188 0.0 0.0 0.00 0.00 0.00 83 1013.9
20260905130737 83 191 0.0 0.0 0.00 0.00 0.00 83 1014.0
20260905130237 83 184 0.0 0.0 0.00 0.00 0.00 84 1014.0
20260905125732 82 189 0.0 0.0 0.00 0.00 0.00 85 1013.8
20260905125227 81 190 0.0 1.0 0.00 0.00 0.00 85 1014.0
20260905124724 81 156 0.0 0.0 0.00 0.00 0.00 87 1014.1
20260905124220 80 309 1.0 2.0 0.00 0.00 0.00 87 1014.2
20260905123720 80 187 0.0 1.0 0.00 0.00 0.00 89 1014.0
20260905123217 81 193 1.0 1.0 0.00 0.00 0.00 88 1014.0
20260905122716 80 187 0.0 0.0 0.00 0.00 0.00 88 1014.0
20260905122211 80 187 0.0 0.0 0.00 0.00 0.00 88 1014.1
20260905121706 79 187 0.0 0.0 0.00 0.00 0.00 90 1014.1
20260905121202 77 186 0.0 0.0 0.00 0.00 0.00 95 1014.0
20260905120701 77 184 0.0 0.0 0.00 0.00 0.00 95 1014.0
20260905120156 76 187 0.0 0.0 0.00 0.00 0.00 96 1013.9
20260905115655 76 184 0.0 0.0 0.00 0.00 0.00 96 1014.1
20260905115151 75 185 0.0 0.0 0.00 0.00 0.00 97 1013.8
20260905114650 75 187 0.0 0.0 0.00 0.00 0.00 97 1013.8
20260905114148 75 185 0.0 0.0 0.00 0.00 0.00 98 1013.6
20260905113643 74 184 0.0 0.0 0.00 0.00 0.00 98 1013.6
20260905113139 74 185 0.0 0.0 0.00 0.00 0.00 99 1013.8
20260905112633 74 188 0.0 0.0 0.00 0.00 0.00 99 1013.6
20260905112129 74 185 0.0 0.0 0.00 0.00 0.00 99 1013.9
20260905111623 74 186 0.0 0.0 0.00 0.00 0.00 99 1013.4
20260905111123 74 182 0.0 0.0 0.00 0.00 0.00 99 1013.5
20260905110622 74 186 0.0 0.0 0.00 0.00 0.00 99 1013.1
20260905110117 73 185 0.0 0.0 0.00 0.00 0.00 99 1013.0
20260905105617 73 189 0.0 0.0 0.00 0.00 0.00 99 1012.9
20260905105116 74 189 0.0 0.0 0.00 0.00 0.00 99 1013.0
20260905104612 73 178 0.0 0.0 0.00 0.00 0.00 99 1013.0
20260905104112 74 184 0.0 0.0 0.00 0.00 0.00 98 1012.6
20260905103608 74 186 0.0 0.0 0.00 0.00 0.00 98 1012.6
20260905103104 74 186 0.0 0.0 0.00 0.00 0.00 98 1012.5
20260905102559 74 185 0.0 0.0 0.00 0.00 0.00 98 1012.4
20260905102056 74 185 0.0 0.0 0.00 0.00 0.00 98 1012.4
20260905101554 74 185 0.0 0.0 0.00 0.00 0.00 97 1012.9
20260905101053 74 187 0.0 0.0 0.00 0.00 0.00 97 1012.5
20260905100549 74 186 0.0 0.0 0.00 0.00 0.00 97 1012.6
20260905100049 75 188 0.0 0.0 0.00 0.00 0.00 96 1012.6
20260905095543 75 189 0.0 0.0 0.00 0.00 0.00 96 1012.8
20260905095039 75 181 0.0 0.0 0.00 0.00 0.00 96 1012.6
20260905094534 75 177 0.0 0.0 0.00 0.00 0.00 95 1012.9
20260905094033 75 185 0.0 0.0 0.00 0.00 0.00 95 1012.4
20260905093533 75 186 0.0 0.0 0.00 0.00 0.00 94 1012.6
20260905093030 75 185 0.0 0.0 0.00 0.00 0.00 94 1012.5
20260905092529 76 186 0.0 0.0 0.00 0.00 0.00 94 1012.6
20260905092025 76 186 0.0 0.0 0.00 0.00 0.00 93 1012.6
20260905091525 76 185 0.0 0.0 0.00 0.00 0.00 93 1012.5
20260905091025 76 188 0.0 0.0 0.00 0.00 0.00 93 1012.6
20260905090524 77 188 0.0 0.0 0.00 0.00 0.00 92 1012.8
20260905090020 77 187 0.0 0.0 0.00 0.00 0.00 92 1012.9
20260905085518 77 182 0.0 0.0 0.00 0.00 0.00 92 1012.6
20260905085015 77 184 0.0 0.0 0.00 0.00 0.00 90 1012.5
20260905084515 77 184 0.0 0.0 0.00 0.00 0.00 90 1012.6
20260905084015 77 187 0.0 0.0 0.00 0.00 0.00 90 1012.8
20260905083509 77 189 0.0 0.0 0.00 0.00 0.00 91 1012.6
20260905083006 77 193 0.0 0.0 0.00 0.00 0.00 91 1012.9
20260905082501 76 192 0.0 0.0 0.00 0.00 0.00 93 1013.1
20260905081957 76 187 0.0 0.0 0.00 0.00 0.00 94 1012.9
20260905081451 76 190 0.0 0.0 0.00 0.00 0.00 94 1012.8
20260905080951 76 186 0.0 0.0 0.00 0.00 0.00 94 1013.0
20260905080445 76 187 0.0 0.0 0.00 0.00 0.00 93 1013.1
20260905075944 76 187 0.0 0.0 0.00 0.00 0.00 93 1013.3